Regional Weather Roundup
Issued by NWS Wakefield, VA

Home | Current Version | Previous Version | Text Only | Print | Product List | Glossary Off
Versions: 1 2 3 4 5 6 7 8 9 10 11 12 13 14 15 16 17 18 19 20 21 22 23 24 25 26 27

000
ASUS41 KAKQ 230715
RWRAKQ

REGIONAL WEATHER ROUNDUP
NATIONAL WEATHER SERVICE WAKEFIELD VA
300 AM EDT FRI JUN 23 2017

Note: "fair" indicates few or no clouds below 12,000 feet with no
significant weather and/or obstructions to visibility. * = Denotes
station may not report precipitation (e.g., rain,snow,etc.),
thunder or fog.

VAZ042-051-052>054-056-230800-
NORTHERN VIRGINIA

CITY           SKY/WX    TMP DP  RH WIND       PRES   REMARKS
WASH NATIONAL  CLOUDY    79  72  79 SW10      29.90F
DULLES         CLOUDY    75  70  84 S7        29.89F
FORT BELVOIR   CLOUDY    77  70  79 CALM      29.89F
QUANTICO       CLOUDY    78  72  81 SW7       29.91F
FREDERICKSBRG* CLOUDY    76  71  85 SW6       29.91F
STAFFORD*      CLOUDY    75  73  92 SW6       29.95F
WARRENTON      CLOUDY    76  69  78 S7        29.90F
CULPEPER*      MOCLDY    75  72  89 SW5       29.92F
MANASSAS*      MOCLDY    74  71  91 S5        29.90
LEESBURG*      CLOUDY    73  73 100 S6        29.90F
WINCHESTER     CLOUDY    73  66  78 SW6       29.90F
FRONT ROYAL*   CLOUDY    75  68  78 SW7       29.90F
LURAY*         CLOUDY    75  68  78 S12       29.94F
$$

VAZ048-049-060>072-079>083-230800-
CENTRAL AND SOUTH CENTRAL VIRGINIA

CITY           SKY/WX    TMP DP  RH WIND       PRES   REMARKS
RICHMOND       CLOUDY    78  70  76 SW9       29.95F
CHESTERFIELD*  NOT AVBL
PETERSBURG*    CLOUDY    73  69  87 CALM      29.99F
HANOVER        CLOUDY    77  67  71 SW8       29.96F
TAPPAHANNOCK*  CLOUDY    75  68  79 S6        29.94F
QUINTON*       FAIR      75  73  92 SW6       29.95F
CHARLOTTSVILLE LGT RAIN  75  69  81 SW7       29.94F
GORDONSVILLE*  CLOUDY    74  71  92 SW3       29.93F
ORANGE*        DRIZZLE   73  70  88 SW9       29.93F
LOUISA*        DRIZZLE   79  73  83 SW3       29.94F
BUMPASS*       FAIR      74  72  91 SW8       29.95F
FARMVILLE*     CLOUDY    73  70  90 CALM      29.97F
CREWE*         PTSUNNY   73  69  87 CALM      29.99F
FORT PICKETT*  CLOUDY    73  69  88 SW6       30.00S
CHASE CITY*    CLOUDY    73  73 100 CALM      30.00F
CLARKSVILLE*   CLOUDY    72  72 100 S3        29.99F
SOUTH HILL*    CLOUDY    72  72 100 S3        30.06F
LAWRENCEVILLE* CLOUDY    73  72  97 SW3       30.00F
EMPORIA*       DRIZZLE   72  70  94 CALM      30.01F
$$

VAZ088>098-230800-
SOUTHEAST VIRGINIA

CITY           SKY/WX    TMP DP  RH WIND       PRES   REMARKS
NORFOLK        MOCLDY    79  72  79 SW12      29.97F
VIRGINIA BEACH CLOUDY    76  70  82 SW13      29.96F
NORFOLK NAVAL  CLOUDY    78  71  79 SW8       29.98F
WEST POINT*    CLOUDY    76  70  82 CALM      29.96F
SALUDA*        FAIR      76  72  86 SW3       29.94F
NEWPORT NEWS   MOCLDY    77  71  82 SW13      29.97F
LANGLEY AFB    CLOUDY    77  72  85 SW10      29.96F
FORT EUSTIS    MOCLDY    76  71  84 SW8       29.95F
WILLIAMSBURG*  CLOUDY    79  72  78 CALM      29.97F
HR EXEC AP*    FAIR      75  70  83 SW7       29.96F
FRANKLIN*      LGT RAIN  73  70  88 SW5       30.00F
US460-WAKEFLD  CLOUDY    74  72  93 SW7       29.98F
$$

VAZ020-022-025-037-045-230800-
WEST CENTRAL AND SOUTHWEST VIRGINIA

CITY           SKY/WX    TMP DP  RH WIND       PRES   REMARKS
STAUNTON*      LGT RAIN  69  65  88 S7        29.99F
WAYNESBORO*    CLOUDY    69  67  94 SW8       29.99F
HOT SPRINGS VA RAIN      63  61  94 SW16G25   30.09F
LYNCHBURG      LGT RAIN  71  69  93 CALM      30.01F
DANVILLE       CLOUDY    72  72 100 VRB5      30.00F
SOUTH BOSTON*  CLOUDY    73  71  95 CALM      30.00F
MARTINSVILLE   LGT RAIN  71  70  96 CALM      30.04F
ROANOKE        LGT RAIN  71  71 100 SE3       30.01F
BLACKSBURG     CLOUDY    69  67  93 CALM      30.07F
DUBLIN*        RAIN      70  65  84 S3        30.05F
MARION*        LGT RAIN  69  65  88 CALM      30.08F
HILLSVILLE*    LGT RAIN  68  64  86 S8        30.07F
RICHLANDS*     CLOUDY    71  66  85 SW6       30.04F
WISE*          CLOUDY    70  70 100 S12G18    30.04F
ABINGDON*      CLOUDY    71  70  98 CALM      30.03F
$$

MDZ021>025-VAZ099-100-230800-
SOUTHERN MARYLAND AND THE DELMARVA PENINSULA

CITY           SKY/WX    TMP DP  RH WIND       PRES   REMARKS
PATUXENT RIVER PTCLDY    77  69  76 SW12      29.91F
BAY BRIDGE APT PTCLDY    77  72  83 S8        29.89F
LEONARDTOWN    MOCLDY    77  68  73 SW9       29.93F
DOVER          PTCLDY    76  76 100 S10       29.87F
GEORGETOWN     PTCLDY    76  73  91 SW6       29.91F
EASTON         PTCLDY    79  72  79 W6        29.94F
CAMBRIDGE      CLEAR     77  70  78 VRB3      29.91F
SALISBURY      MOCLDY    74  74 100 S6        29.92F
OCEAN CITY     MOCLDY    76  73  91 SW7       29.92F
WALLOPS ISLAND PTCLDY    77  73  87 SW6       29.93F
ACCOMACK*      CLOUDY    78  73  82 SW8       29.95F
$$

NCZ012>017-030>032-230800-
NORTH CENTRAL AND EASTERN NORTH CAROLINA

CITY           SKY/WX    TMP DP  RH WIND       PRES   REMARKS
ROANOKE RAPIDS   N/A     72  72 100 W3        30.02S
RALEIGH        LGT RAIN  74  71  91 S6        30.02F
ELIZABETH CITY CLOUDY    77  73  87 SW9       30.00F
AHOSKIE*         N/A     72  71  96 CALM      30.01F
EDENTON*       CLOUDY    79  74  83 CALM      30.03S
CURRITUCK*     CLOUDY    77  72  82 SW10      30.00F
KILL DEVIL HLS CLOUDY    77  72  85 CALM      30.01S
MANTEO         CLOUDY    77  73  86 W8        30.02F
CAPE HATTERAS  CLOUDY    79  75  87 W7        30.03F
TARBORO*       NOT AVBL
GOLDSBORO      CLOUDY    75  75 100 SW7       30.01F
WASHINGTON     CLOUDY    74  73  93 SW6       30.03F
GREENVILLE     PTCLDY    75  73  94 SW3       30.04F
NEW BERN       PTCLDY    76  76 100 S5        30.04F FOG
WILMINGTON     CLOUDY    78  77  96 SW7       30.04F
$$

VAZ048-230800-
ELSEWHERE

CITY           SKY/WX    TMP DP  RH WIND       PRES   REMARKS
HARRISBURG PA  CLOUDY    72  70  93 CALM      29.86F
BALTIMORE      CLOUDY    76  73  91 SW6       29.87F
ANNAPOLIS      MOCLDY    79  74  84 SW6       29.88F
ANDREWS AFB    MOCLDY    76  70  83 SW13      29.89F
PHILADELPHIA   CLOUDY    78  72  81 SW5       29.87F
HENDERSON NC   LGT RAIN  70  68  94 S5        30.02F
GREENSBORO     CLOUDY    72  72 100 SW8       30.03S
ROCKY MOUNT    CLOUDY    74  73  97 S5        30.02F
$$

VAZ100-230800-
MARINE

STATION/POSITION TIME  TEMP    WIND        PRES    WAVE   SWELL
                       AIR SEA DIR/SP/G            HT/PER HT/PER
                 (UTC) (F)     (DEG/KT/KT) (MB)    (FT/S) (FT/S)
BRANDYWINE LGT   0642          230/ 13/ 13 1012.7F
CAPE MAY NJ      0642          210/  5/  8 1012.2F
LEWES DE         0642          240/  7/  9 1012.5F
15NM E FENWICK I 0650   71 69  210/ 10/ 12 1013.5F   2/ 6   2/ 6
OCEAN-CITY-INLET 0642          230/  3/  4 1013.5F
WACHAPREAGUE VA  0642          220/  5/  8 1014.0F
THOMAS POINT MD  0700   78 78  220/ 13/ 14   N/A
GOOSES REEF MD   0700   79 79  280/ 14/ 17 1013.0    2/ 2
COVE POINT MD    0642          240/ 13/ 17 1013.1F
SOLOMONS ISLAND  0642          230/ 14/ 16   N/A
BISHOPS HEAD MD  0642          220/ 14/ 17 1013.2F
PINEY POINT MD   0636          240/ 12/ 14   N/A
POTOMAC MD       0700   79 78  260/ 14/ 16 1012.3    1/ 2
CAMBRIDGE MD     0642                      1013.3F
LEWISETTA VA     0642          260/ 11/ 13 1013.2F
RAPPAHANNOCK LGT 0642          230/ 10/ 12 1014.8F
STINGRAY PT      0650   78     250/  8/ 10 1013.9F
YORK RVR RNG VA  0642          240/ 10/ 12 1014.7F
YORKTOWN VA      0642          230/  7/ 10 1014.1F
JAMESTOWN VA     0700   77 82  220/  4/  8   N/A     0
DOMINION TERM VA 0642          240/ 12/ 14 1015.0F
KIPTOPEKE VA     0636          250/ 12/ 14   N/A
CHES BAY BRIDGE  0642          250/ 12/ 14 1014.6F
CAPE HENRY VA    0642          230/  8/ 11   N/A
WILLOUBY STN VA  0642          230/ 14/ 17 1014.5F
S CRANEY ISL VA  0642          220/  6/  9 1014.8F
CAPE HENRY BUOY  0700      73                N/A     2/ 8
1ST LANDING BUOY 0700   77 74              1014.7    1
CAPE CHARLES BUO 0621      68                N/A     2/ 9
64NM E OF VA BCH 0650   74 71  230/ 10/ 12 1015.7F   3/ 8   2/ 8
DUCK PIER NC     0636          230/ 16/ 19 1015.6F
44100 DUCK FRF   0605      69                N/A     2/ 8
OREGON INLET NC  0636          220/ 12/ 13 1016.3F
HATTERAS NC      0636          240/  6/  9 1016.8F
DIAMOND SHLS NC  0650   80 80  260/ 12/ 14 1016.9F   3/ 8   3/ 8
CAPE LOOKOUT NC  0700   79     230/  7/ 10 1016.8F
$$




USA.gov is the U.S. government's official web portal to all federal, state and local government web resources and services.